Regional Weather Roundup
Issued by NWS

Home | Current Version | Previous Version | Graphics & Text | Print | Product List | Glossary On
Versions: 1 2 3 4 5 6 7 8 9 10 11 12 13 14 15 16 17 18 19 20 21 22 23 24 25 26 27 28 29 30 31 32 33 34 35 36 37 38 39 40 41 42 43 44 45 46 47 48 49 50
000
ASUS43 KLOT 171900
RWRIL

ILLINOIS REGIONAL WEATHER ROUNDUP
NATIONAL WEATHER SERVICE CHICAGO/ROMEOVILLE IL
200 PM CDT THU APR 17 2014

NOTE: "FAIR" INDICATES FEW OR NO CLOUDS BELOW 12,000 FEET WITH NO
SIGNIFICANT WEATHER AND/OR OBSTRUCTIONS TO VISIBILITY.

* THESE STATIONS ARE NOT UNDER NWS QUALITY CONTROL. THEY ALSO MAY NOT
  REPORT WEATHER SUCH AS PRECIPITATION OR FOG.

ILZ001-002-007-009-015-016-024-172000-
NORTHWEST ILLINOIS

CITY           SKY/WX    TMP DP  RH WIND       PRES   REMARKS
MOLINE         MOSUNNY   52  35  52 W9        30.24S
STERLING*      MOSUNNY   55  39  54 W13       30.22S
$$

ILZ003-004-008-010-011-017-018-172000-
NORTH CENTRAL ILLINOIS

CITY           SKY/WX    TMP DP  RH WIND       PRES   REMARKS
ROCKFORD       PTSUNNY   54  37  52 SW12      30.22F
$$

ILZ005-006-012>014-019>023-172000-
NORTHEAST ILLINOIS

CITY           SKY/WX    TMP DP  RH WIND       PRES   REMARKS
CHICAGO-OHARE  PTSUNNY   60  39  45 SW15G21   30.18S
CHICAGO-MIDWAY PTSUNNY   61  39  44 W16G22    30.19S
AURORA         MOSUNNY   58  39  49 SW13      30.20S
WAUKEGAN       MOSUNNY   57  38  48 SW13G21   30.17S
DUPAGE AIRPORT MOSUNNY   59  39  47 SW15      30.19S
WHEELING       SUNNY     59  38  45 W12G21    30.19S
NORTHERLY ISL    N/A     59  35  40 W10         N/A
$$

LMZ740>746-172000-
SOUTHERN LAKE MICHIGAN

STATION/POSITION SKY/WX   TEMP    WIND        PRES    VSBY  WAVE
                          AIR SEA DIR/SP/G                  HT/PER
                          (F)     (DEG/KT/KT) (MB)    (MI)  (FT/S)
WAUKEGAN HARBOR            55     260/ 12/ 17 1022.7S
HARRISON CRIB              55     220/ 12/ 15   N/A
BURNHAM HARBOR             59     260/  9/ 17   N/A
CALUMET HARBOR             58     200/ 12/ 17 1022.7F
MICHIGAN CITY              57     210/ 21/ 26   N/A
$$

ILZ025>027-034>036-040-047-049-050-058-095>099-172000-
WEST-CENTRAL ILLINOIS

CITY           SKY/WX    TMP DP  RH WIND       PRES   REMARKS
QUINCY         CLOUDY    51  35  54 VRB5      30.26S
$$

ILZ028>032-037-038-041>044-048-051>054-059>061-172000-
CENTRAL ILLINOIS

CITY           SKY/WX    TMP DP  RH WIND       PRES   REMARKS
DECATUR        PTSUNNY   61  38  42 SW14      30.24F
PEORIA         MOSUNNY   56  38  50 SW7       30.24S
SPRINGFIELD    PTSUNNY   60  36  40 W8        30.25S
TAYLORVILLE    NOT AVBL
$$

ILZ033-039-045-046-055>057-062-063-172000-
EAST-CENTRAL ILLINOIS

CITY           SKY/WX    TMP DP  RH WIND       PRES   REMARKS
CHAMPAIGN      CLOUDY    65  37  35 SW17G24   30.24R
MATTOON        CLOUDY    62  36  37 S10G20    30.24S
$$

ILZ079-100>102-172000-
SOUTHWEST ILLINOIS

CITY           SKY/WX    TMP DP  RH WIND       PRES   REMARKS
ALTON          PTSUNNY   63  32  31 W7        30.24F
BELLEVILLE     CLOUDY    65  39  37 S5        30.23F
CAHOKIA*       CLOUDY    66  37  34 CALM      30.22F
$$

ILZ064>066-069>071-074>076-080>082-084>086-088>090-092>094-172000-
SOUTH-CENTRAL ILLINOIS

CITY           SKY/WX    TMP DP  RH WIND       PRES   REMARKS
CARBONDALE     MOSUNNY   65  36  34 S12       30.24F
MARION         PTSUNNY   64  37  36 SW12      30.25F
MT. VERNON     PTSUNNY   66  37  34 S7        30.26F
$$

ILZ067-068-072-073-078-083-087-091-172000-
SOUTHEAST ILLINOIS

CITY           SKY/WX    TMP DP  RH WIND       PRES   REMARKS
$$

ABBREVIATIONS USED IN REMARKS
   TC - TEMPERATURE IN CELSIUS
  WCI - WIND CHILL INDEX
   HX - HEAT INDEX
  VSB - VISIBILITY
$$




USA.gov is the U.S. government's official web portal to all federal, state and local government web resources and services.